Showing default

OPS 9344 (IDSCS 22), 3287

Orbit data source: Space-Track

OPS 9344 (IDSCS 22), 3287 is a payload satellite owned by SAMSO (US) in GEO that was launched on Thu, 13 Jun 1968 UTC via a TITAN IIIC launch vehicle from the Air Force Eastern Test Range (AFETR). Payload-class satellites include a variety of spacecraft equipped with specific instruments for various scientific and technological missions. These include communications satellites like Starlink; space stations such as the ISS; scientific satellites like the Hubble; Earth observation satellites from companies like Planet Labs, Umbra, and HawkEye 360; GPS; miniature CubeSats for education and research; and military/defense satellites.

Not visible in the next 10 days
Identifier
3287, 1968-050D
Orbit
GEO
Country
Flag of USUS
Related business
Manufacturer
Philco-Ford
Mission
Non-operational spacecraft
Bus & Motor
IDCSP, Unknown motor
Mass
45 kg wet, 45 kg dry
Launch date (UTC)
1968-06-13 (58 years ago)
Launch vehicle
TITAN IIIC
Launch site
Air Force Eastern Test Range (AFETR)
Object type
Payload
Rocket body
Debris
Shape & HBR
POLY, 1.1 m
Radar Cross Section
Medium (>0.1 m² and <1 m²)

Expand to show TLE details & history
Last TLE update: 2 months ago

TLE from 2 months ago
0 OPS 9344 (IDSCS 22)
1  3287U 68050D   26205.32852354 -.00000119  00000-0  00000+0 0  9997
2  3287   7.2593  51.9040 0025960 147.8361 112.3966  1.07640895227660
Epoch: 2026-07-24T07:53Z
TLE epoch observation values (Epoch: 2026-07-24T07:53:04.433Z)
Latitude
-7.18217°
Longitude
-107.98215°
Altitude
33,880.244 km
Speed
3.145 km/s
True Right ascension
20h 49m 22s
True Declination
-7° 10' 29"
Sunlit
Object was in daylight at epoch
Visualization orbit readout
Latitude
Unknown
Longitude
Unknown
Altitude
Unknown
Speed
Unknown
Apparent Right ascension
Unknown
Apparent Declination
Unknown
Sunlit
N/A
Visualization observer readout
Local Sidereal Time
03:42:31
Azimuth
Unknown
Elevation
Unknown
Doppler factor
Unknown
Orbital elements
Apogee altitude
33,945.041 km
Perigee altitude
33,736.225 km
Semi-major axis
40,218.77 km
Eccentricity
0.0026
Inclination
7.2593°
RAAN
51.904°
Arg. of periapsis
147.8361°
True anomaly
112.6713°
Mean anomaly
112.3966°
Eccentric anomaly
112.53398°
Mean motion
0.26909 °/min
Orbital period
1,337.83 mins
BSTAR
0
Loading maneuver chart data...
Computing Atmospheric mass density...
Loading historical data...
Loading historical data...
Loading historical data...
Loading historical data...
Loading historical data...
Loading historical data...
Loading historical data...

Documentation

Showing up to 5 results
|